Terminal Aerodrome Forecast
Issued by NWS Atlanta, GA

Home | Current Version | Previous Version | Text Only | Print | Product List | Glossary On
Versions: 1 2 3 4 5 6 7 8 9 10 11 12 13 14 15 16 17 18 19 20 21 22 23 24 25 26 27 28 29 30
000
FTAK31 PAJN 182000 AAA
TAFAHN
TAF AMD
PAHN 182058Z 1821/1918 30010KT P6SM SCT010 BKN100
     FM182200 30012KT P6SM SCT070 OVC100
     FM190600 30008KT 6SM -SN BKN035 OVC050
     FM191200 30012KT P6SM VCSH BKN035 OVC050
      AMD LTD TO CLD VIS AND WIND=

USA.gov is the U.S. government's official web portal to all federal, state and local government web resources and services.